Year,Month,Day,Hour,Minute,Value (Times are PST for temperature in C)
2011,07,05,00,00,13.10
2011,07,05,00,01,13.10
2011,07,05,00,02,13.00
2011,07,05,00,03,13.00
2011,07,05,00,04,13.00
2011,07,05,00,05,12.90
2011,07,05,00,06,12.90
2011,07,05,00,07,12.90
2011,07,05,00,08,12.80
2011,07,05,00,09,12.80
2011,07,05,00,10,12.80
2011,07,05,00,11,12.80
2011,07,05,00,12,12.80
2011,07,05,00,13,12.80
2011,07,05,00,14,12.80
2011,07,05,00,15,12.80
2011,07,05,00,16,12.80
2011,07,05,00,17,12.80
2011,07,05,00,18,12.80
2011,07,05,00,19,12.80
2011,07,05,00,20,12.80
2011,07,05,00,21,12.80
2011,07,05,00,22,12.80
2011,07,05,00,23,12.80
2011,07,05,00,24,12.80
2011,07,05,00,25,12.80
2011,07,05,00,26,12.70
2011,07,05,00,27,12.70
2011,07,05,00,28,12.70
2011,07,05,00,29,12.70
2011,07,05,00,30,12.70
2011,07,05,00,31,12.60
2011,07,05,00,32,12.60
2011,07,05,00,33,12.60
2011,07,05,00,34,12.60
2011,07,05,00,35,12.50
2011,07,05,00,36,12.50
2011,07,05,00,37,12.50
2011,07,05,00,38,12.50
2011,07,05,00,39,12.50
2011,07,05,00,40,12.50
2011,07,05,00,41,12.40
2011,07,05,00,42,12.40
2011,07,05,00,43,12.40
2011,07,05,00,44,12.40
2011,07,05,00,45,12.40
2011,07,05,00,46,12.30
2011,07,05,00,47,12.30
2011,07,05,00,48,12.30
2011,07,05,00,49,12.30
2011,07,05,00,50,12.30
2011,07,05,00,51,12.30
2011,07,05,00,52,12.30
2011,07,05,00,53,12.30
2011,07,05,00,54,12.30
2011,07,05,00,55,12.30
2011,07,05,00,56,12.30
2011,07,05,00,57,12.30
2011,07,05,00,58,12.30
2011,07,05,00,59,12.30
2011,07,05,01,00,12.30
2011,07,05,01,01,12.30
2011,07,05,01,02,12.30
2011,07,05,01,03,12.30
2011,07,05,01,04,12.30
2011,07,05,01,05,12.30
2011,07,05,01,06,12.30
2011,07,05,01,07,12.30
2011,07,05,01,08,12.30
2011,07,05,01,09,12.30
2011,07,05,01,10,12.30
2011,07,05,01,11,12.30
2011,07,05,01,12,12.30
2011,07,05,01,13,12.30
2011,07,05,01,14,12.30
2011,07,05,01,15,12.30
2011,07,05,01,16,12.30
2011,07,05,01,17,12.30
2011,07,05,01,18,12.30
2011,07,05,01,19,12.30
2011,07,05,01,20,12.20
2011,07,05,01,21,12.20
2011,07,05,01,22,12.20
2011,07,05,01,23,12.20
2011,07,05,01,24,12.20
2011,07,05,01,25,12.20
2011,07,05,01,26,12.10
2011,07,05,01,27,12.10
2011,07,05,01,28,12.10
2011,07,05,01,29,12.10
2011,07,05,01,30,12.10
2011,07,05,01,31,12.10
2011,07,05,01,32,12.10
2011,07,05,01,33,12.10
2011,07,05,01,34,12.00
2011,07,05,01,35,12.00
2011,07,05,01,36,12.00
2011,07,05,01,37,12.00
2011,07,05,01,38,12.00
2011,07,05,01,39,12.00
2011,07,05,01,40,12.00
2011,07,05,01,41,12.00
2011,07,05,01,42,12.00
2011,07,05,01,43,12.00
2011,07,05,01,44,12.00
2011,07,05,01,45,12.00
2011,07,05,01,46,12.00
2011,07,05,01,47,12.00
2011,07,05,01,48,12.00
2011,07,05,01,49,11.90
2011,07,05,01,50,11.90
2011,07,05,01,51,11.90
2011,07,05,01,52,11.90
2011,07,05,01,53,11.90
2011,07,05,01,54,11.90
2011,07,05,01,55,11.90
2011,07,05,01,56,11.90
2011,07,05,01,57,11.90
2011,07,05,01,58,11.90
2011,07,05,01,59,11.90
2011,07,05,02,00,11.90
2011,07,05,02,01,11.90
2011,07,05,02,02,11.80
2011,07,05,02,03,11.80
2011,07,05,02,04,11.80
2011,07,05,02,05,11.80
2011,07,05,02,06,11.80
2011,07,05,02,07,11.80
2011,07,05,02,08,11.80
2011,07,05,02,09,11.80
2011,07,05,02,10,11.80
2011,07,05,02,11,11.80
2011,07,05,02,12,11.80
2011,07,05,02,13,11.80
2011,07,05,02,14,11.80
2011,07,05,02,15,11.80
2011,07,05,02,16,11.80
2011,07,05,02,17,11.80
2011,07,05,02,18,11.70
2011,07,05,02,19,11.70
2011,07,05,02,20,11.70
2011,07,05,02,21,11.70
2011,07,05,02,22,11.70
2011,07,05,02,23,11.70
2011,07,05,02,24,11.70
2011,07,05,02,25,11.70
2011,07,05,02,26,11.70
2011,07,05,02,27,11.60
2011,07,05,02,28,11.60
2011,07,05,02,29,11.60
2011,07,05,02,30,11.60
2011,07,05,02,31,11.60
2011,07,05,02,32,11.60
2011,07,05,02,33,11.60
2011,07,05,02,34,11.60
2011,07,05,02,35,11.60
2011,07,05,02,36,11.50
2011,07,05,02,37,11.40
2011,07,05,02,38,11.40
2011,07,05,02,39,11.40
2011,07,05,02,40,11.40
2011,07,05,02,41,11.40
2011,07,05,02,42,11.40
2011,07,05,02,43,11.40
2011,07,05,02,44,11.40
2011,07,05,02,45,11.30
2011,07,05,02,46,11.30
2011,07,05,02,47,11.30
2011,07,05,02,48,11.30
2011,07,05,02,49,11.20
2011,07,05,02,50,11.20
2011,07,05,02,51,11.20
2011,07,05,02,52,11.20
2011,07,05,02,53,11.20
2011,07,05,02,54,11.20
2011,07,05,02,55,11.10
2011,07,05,02,56,11.10
2011,07,05,02,57,11.10
2011,07,05,02,58,11.10
2011,07,05,02,59,11.10
2011,07,05,03,00,11.00
2011,07,05,03,01,10.90
2011,07,05,03,02,10.90
2011,07,05,03,03,10.90
2011,07,05,03,04,10.90
2011,07,05,03,05,10.90
2011,07,05,03,06,10.90
2011,07,05,03,07,10.90
2011,07,05,03,08,10.80
2011,07,05,03,09,10.80
2011,07,05,03,10,10.80
2011,07,05,03,11,10.80
2011,07,05,03,12,10.80
2011,07,05,03,13,10.80
2011,07,05,03,14,10.70
2011,07,05,03,15,10.70
2011,07,05,03,16,10.70
2011,07,05,03,17,10.70
2011,07,05,03,18,10.60
2011,07,05,03,19,10.60
2011,07,05,03,20,10.60
2011,07,05,03,21,10.60
2011,07,05,03,22,10.60
2011,07,05,03,23,10.60
2011,07,05,03,24,10.60
2011,07,05,03,25,10.60
2011,07,05,03,26,10.60
2011,07,05,03,27,10.50
2011,07,05,03,28,10.40
2011,07,05,03,29,10.40
2011,07,05,03,30,10.40
2011,07,05,03,31,10.40
2011,07,05,03,32,10.40
2011,07,05,03,33,10.40
2011,07,05,03,34,10.40
2011,07,05,03,35,10.40
2011,07,05,03,36,10.40
2011,07,05,03,37,10.40
2011,07,05,03,38,10.30
2011,07,05,03,39,10.30
2011,07,05,03,40,10.30
2011,07,05,03,41,10.20
2011,07,05,03,42,10.20
2011,07,05,03,43,10.20
2011,07,05,03,44,10.20
2011,07,05,03,45,10.10
2011,07,05,03,46,10.10
2011,07,05,03,47,10.10
2011,07,05,03,48,10.10
2011,07,05,03,49,10.10
2011,07,05,03,50,10.10
2011,07,05,03,51,10.10
2011,07,05,03,52,10.10
2011,07,05,03,53,10.10
2011,07,05,03,54,10.10
2011,07,05,03,55,10.10
2011,07,05,03,56,10.10
2011,07,05,03,57,10.10
2011,07,05,03,58,10.10
2011,07,05,03,59,10.10
2011,07,05,04,00,10.10
2011,07,05,04,01,10.10
2011,07,05,04,02,10.10
2011,07,05,04,03,10.10
2011,07,05,04,04,10.00
2011,07,05,04,05,9.90
2011,07,05,04,06,9.90
2011,07,05,04,07,9.90
2011,07,05,04,08,9.90
2011,07,05,04,09,9.90
2011,07,05,04,10,9.90
2011,07,05,04,11,9.90
2011,07,05,04,12,9.90
2011,07,05,04,13,9.90
2011,07,05,04,14,9.90
2011,07,05,04,15,9.90
2011,07,05,04,16,9.90
2011,07,05,04,17,9.90
2011,07,05,04,18,9.90
2011,07,05,04,19,9.80
2011,07,05,04,20,9.80
2011,07,05,04,21,9.80
2011,07,05,04,22,9.80
2011,07,05,04,23,9.80
2011,07,05,04,24,9.80
2011,07,05,04,25,9.70
2011,07,05,04,26,9.70
2011,07,05,04,27,9.70
2011,07,05,04,28,9.70
2011,07,05,04,29,9.70
2011,07,05,04,30,9.70
2011,07,05,04,31,9.70
2011,07,05,04,32,9.70
2011,07,05,04,33,9.70
2011,07,05,04,34,9.70
2011,07,05,04,35,9.60
2011,07,05,04,36,9.60
2011,07,05,04,37,9.60
2011,07,05,04,38,9.60
2011,07,05,04,39,9.60
2011,07,05,04,40,9.60
2011,07,05,04,41,9.60
2011,07,05,04,42,9.50
2011,07,05,04,43,9.50
2011,07,05,04,44,9.50
2011,07,05,04,45,9.50
2011,07,05,04,46,9.50
2011,07,05,04,47,9.50
2011,07,05,04,48,9.50
2011,07,05,04,49,9.50
2011,07,05,04,50,9.50
2011,07,05,04,51,9.50
2011,07,05,04,52,9.50
2011,07,05,04,53,9.50
2011,07,05,04,54,9.50
2011,07,05,04,55,9.50
2011,07,05,04,56,9.50
2011,07,05,04,57,9.50
2011,07,05,04,58,9.50
2011,07,05,04,59,9.50
2011,07,05,05,00,9.50
2011,07,05,05,01,9.40
2011,07,05,05,02,9.40
2011,07,05,05,03,9.40
2011,07,05,05,04,9.40
2011,07,05,05,05,9.40
2011,07,05,05,06,9.40
2011,07,05,05,07,9.40
2011,07,05,05,08,9.40
2011,07,05,05,09,9.40
2011,07,05,05,10,9.40
2011,07,05,05,11,9.40
2011,07,05,05,12,9.40
2011,07,05,05,13,9.40
2011,07,05,05,14,9.40
2011,07,05,05,15,9.40
2011,07,05,05,16,9.40
2011,07,05,05,17,9.40
2011,07,05,05,18,9.40
2011,07,05,05,19,9.40
2011,07,05,05,20,9.40
2011,07,05,05,21,9.40
2011,07,05,05,22,9.40
2011,07,05,05,23,9.40
2011,07,05,05,24,9.40
2011,07,05,05,25,9.40
2011,07,05,05,26,9.50
2011,07,05,05,27,9.50
2011,07,05,05,28,9.50
2011,07,05,05,29,9.50
2011,07,05,05,30,9.40
2011,07,05,05,31,9.40
2011,07,05,05,32,9.40
2011,07,05,05,33,9.40
2011,07,05,05,34,9.50
2011,07,05,05,35,9.50
2011,07,05,05,36,9.50
2011,07,05,05,37,9.60
2011,07,05,05,38,9.60
2011,07,05,05,39,9.60
2011,07,05,05,40,9.70
2011,07,05,05,41,9.70
2011,07,05,05,42,9.70
2011,07,05,05,43,9.70
2011,07,05,05,44,9.70
2011,07,05,05,45,9.80
2011,07,05,05,46,9.80
2011,07,05,05,47,9.80
2011,07,05,05,48,9.80
2011,07,05,05,49,9.90
2011,07,05,05,50,9.90
2011,07,05,05,51,9.90
2011,07,05,05,52,9.90
2011,07,05,05,53,9.90
2011,07,05,05,54,9.90
2011,07,05,05,55,9.90
2011,07,05,05,56,10.10
2011,07,05,05,57,10.10
2011,07,05,05,58,10.10
2011,07,05,05,59,10.10
2011,07,05,06,00,10.10
2011,07,05,06,01,10.20
2011,07,05,06,02,10.20
2011,07,05,06,03,10.30
2011,07,05,06,04,10.30
2011,07,05,06,05,10.30
2011,07,05,06,06,10.40
2011,07,05,06,07,10.40
2011,07,05,06,08,10.40
2011,07,05,06,09,10.50
2011,07,05,06,10,10.60
2011,07,05,06,11,10.60
2011,07,05,06,12,10.60
2011,07,05,06,13,10.70
2011,07,05,06,14,10.70
2011,07,05,06,15,10.70
2011,07,05,06,16,10.80
2011,07,05,06,17,10.80
2011,07,05,06,18,10.90
2011,07,05,06,19,10.90
2011,07,05,06,20,10.90
2011,07,05,06,21,10.90
2011,07,05,06,22,10.90
2011,07,05,06,23,10.90
2011,07,05,06,24,10.90
2011,07,05,06,25,10.90
2011,07,05,06,26,10.90
2011,07,05,06,27,10.90
2011,07,05,06,28,10.90
2011,07,05,06,29,10.90
2011,07,05,06,30,10.90
2011,07,05,06,31,10.90
2011,07,05,06,32,10.90
2011,07,05,06,33,11.00
2011,07,05,06,34,11.10
2011,07,05,06,35,11.10
2011,07,05,06,36,11.10
2011,07,05,06,37,11.10
2011,07,05,06,38,11.10
2011,07,05,06,39,11.20
2011,07,05,06,40,11.20
2011,07,05,06,41,11.30
2011,07,05,06,42,11.40
2011,07,05,06,43,11.40
2011,07,05,06,44,11.50
2011,07,05,06,45,11.60
2011,07,05,06,46,11.70
2011,07,05,06,47,11.80
2011,07,05,06,48,11.80
2011,07,05,06,49,11.80
2011,07,05,06,50,11.90
2011,07,05,06,51,11.90
2011,07,05,06,52,11.90
2011,07,05,06,53,11.90
2011,07,05,06,54,11.90
2011,07,05,06,55,11.90
2011,07,05,06,56,11.90
2011,07,05,06,57,11.90
2011,07,05,06,58,11.90
2011,07,05,06,59,11.90
2011,07,05,07,00,11.90
2011,07,05,07,01,11.90
2011,07,05,07,02,11.90
2011,07,05,07,03,11.90
2011,07,05,07,04,11.90
2011,07,05,07,05,11.90
2011,07,05,07,06,12.00
2011,07,05,07,07,12.00
2011,07,05,07,08,12.00
2011,07,05,07,09,12.10
2011,07,05,07,10,12.10
2011,07,05,07,11,12.20
2011,07,05,07,12,12.20
2011,07,05,07,13,12.30
2011,07,05,07,14,12.30
2011,07,05,07,15,12.40
2011,07,05,07,16,12.50
2011,07,05,07,17,12.50
2011,07,05,07,18,12.60
2011,07,05,07,19,12.70
2011,07,05,07,20,12.70
2011,07,05,07,21,12.80
2011,07,05,07,22,12.90
2011,07,05,07,23,13.00
2011,07,05,07,24,13.20
2011,07,05,07,25,13.30
2011,07,05,07,26,13.50
2011,07,05,07,27,13.60
2011,07,05,07,28,13.70
2011,07,05,07,29,13.80
2011,07,05,07,30,13.90
2011,07,05,07,31,14.00
2011,07,05,07,32,14.20
2011,07,05,07,33,14.30
2011,07,05,07,34,14.40
2011,07,05,07,35,14.50
2011,07,05,07,36,14.50
2011,07,05,07,37,14.60
2011,07,05,07,38,14.60
2011,07,05,07,39,14.70
2011,07,05,07,40,14.70
2011,07,05,07,41,14.70
2011,07,05,07,42,14.80
2011,07,05,07,43,14.80
2011,07,05,07,44,14.80
2011,07,05,07,45,14.80
2011,07,05,07,46,14.80
2011,07,05,07,47,14.80
2011,07,05,07,48,14.90
2011,07,05,07,49,14.90
2011,07,05,07,50,14.90
2011,07,05,07,51,15.00
2011,07,05,07,52,15.10
2011,07,05,07,53,15.20
2011,07,05,07,54,15.30
2011,07,05,07,55,15.40
2011,07,05,07,56,15.50
2011,07,05,07,57,15.60
2011,07,05,07,58,15.60
2011,07,05,07,59,15.60
2011,07,05,08,00,15.70
2011,07,05,08,01,15.70
2011,07,05,08,02,15.80
2011,07,05,08,03,15.80
2011,07,05,08,04,15.90
2011,07,05,08,05,15.90
2011,07,05,08,06,15.90
2011,07,05,08,07,16.00
2011,07,05,08,08,16.10
2011,07,05,08,09,16.10
2011,07,05,08,10,16.10
2011,07,05,08,11,16.20
2011,07,05,08,12,16.20
2011,07,05,08,13,16.20
2011,07,05,08,14,16.30
2011,07,05,08,15,16.30
2011,07,05,08,16,16.30
2011,07,05,08,17,16.40
2011,07,05,08,18,16.40
2011,07,05,08,19,16.40
2011,07,05,08,20,16.50
2011,07,05,08,21,16.60
2011,07,05,08,22,16.70
2011,07,05,08,23,16.70
2011,07,05,08,24,16.70
2011,07,05,08,25,16.70
2011,07,05,08,26,16.80
2011,07,05,08,27,16.80
2011,07,05,08,28,16.80
2011,07,05,08,29,16.90
2011,07,05,08,30,16.90
2011,07,05,08,31,17.00
2011,07,05,08,32,17.10
2011,07,05,08,33,17.20
2011,07,05,08,34,17.30
2011,07,05,08,35,17.40
2011,07,05,08,36,17.50
2011,07,05,08,37,17.60
2011,07,05,08,38,17.70
2011,07,05,08,39,17.70
2011,07,05,08,40,17.70
2011,07,05,08,41,17.80
2011,07,05,08,42,17.80
2011,07,05,08,43,17.90
2011,07,05,08,44,17.90
2011,07,05,08,45,18.00
2011,07,05,08,46,18.20
2011,07,05,08,47,18.20
2011,07,05,08,48,18.30
2011,07,05,08,49,18.30
2011,07,05,08,50,18.40
2011,07,05,08,51,18.40
2011,07,05,08,52,18.40
2011,07,05,08,53,18.40
2011,07,05,08,54,18.40
2011,07,05,08,55,18.40
2011,07,05,08,56,18.50
2011,07,05,08,57,18.50
2011,07,05,08,58,18.60
2011,07,05,08,59,18.70
2011,07,05,09,00,18.70
2011,07,05,09,01,18.90
2011,07,05,09,02,18.90
2011,07,05,09,03,18.70
2011,07,05,09,04,18.50
2011,07,05,09,05,18.20
2011,07,05,09,06,17.90
2011,07,05,09,07,17.70
2011,07,05,09,08,17.50
2011,07,05,09,09,17.40
2011,07,05,09,10,17.20
2011,07,05,09,11,17.10
2011,07,05,09,12,17.00
2011,07,05,09,13,16.80
2011,07,05,09,14,16.70
2011,07,05,09,15,16.70
2011,07,05,09,16,16.70
2011,07,05,09,17,16.60
2011,07,05,09,18,16.60
2011,07,05,09,19,16.50
2011,07,05,09,20,16.40
2011,07,05,09,21,16.30
2011,07,05,09,22,16.20
2011,07,05,09,23,16.10
2011,07,05,09,24,16.10
2011,07,05,09,25,16.10
2011,07,05,09,26,16.20
2011,07,05,09,27,16.30
2011,07,05,09,28,16.40
2011,07,05,09,29,16.40
2011,07,05,09,30,16.40
2011,07,05,09,31,16.40
2011,07,05,09,32,16.40
2011,07,05,09,33,16.40
2011,07,05,09,34,16.30
2011,07,05,09,35,16.30
2011,07,05,09,36,16.40
2011,07,05,09,37,16.30
2011,07,05,09,38,16.20
2011,07,05,09,39,16.20
2011,07,05,09,40,16.30
2011,07,05,09,41,16.30
2011,07,05,09,42,16.30
2011,07,05,09,43,16.30
2011,07,05,09,44,16.20
2011,07,05,09,45,16.20
2011,07,05,09,46,16.20
2011,07,05,09,47,16.20
2011,07,05,09,48,16.20
2011,07,05,09,49,16.20
2011,07,05,09,50,16.20
2011,07,05,09,51,16.30
2011,07,05,09,52,16.30
2011,07,05,09,53,16.30
2011,07,05,09,54,16.30
2011,07,05,09,55,16.20
2011,07,05,09,56,16.30
2011,07,05,09,57,16.20
2011,07,05,09,58,16.20
2011,07,05,09,59,16.20
2011,07,05,10,00,16.20
2011,07,05,10,01,16.20
2011,07,05,10,02,16.30
2011,07,05,10,03,16.40
2011,07,05,10,04,16.40
2011,07,05,10,05,16.40
2011,07,05,10,06,16.40
2011,07,05,10,07,16.50
2011,07,05,10,08,16.60
2011,07,05,10,09,16.70
2011,07,05,10,10,16.70
2011,07,05,10,11,16.70
2011,07,05,10,12,16.60
2011,07,05,10,13,16.60
2011,07,05,10,14,16.60
2011,07,05,10,15,16.70
2011,07,05,10,16,16.70
2011,07,05,10,17,16.80
2011,07,05,10,18,16.80
2011,07,05,10,19,16.80
2011,07,05,10,20,16.80
2011,07,05,10,21,16.80
2011,07,05,10,22,16.80
2011,07,05,10,23,16.80
2011,07,05,10,24,16.80
2011,07,05,10,25,16.90
2011,07,05,10,26,16.90
2011,07,05,10,27,17.00
2011,07,05,10,28,17.00
2011,07,05,10,29,17.00
2011,07,05,10,30,17.00
2011,07,05,10,31,17.10
2011,07,05,10,32,17.10
2011,07,05,10,33,17.10
2011,07,05,10,34,17.10
2011,07,05,10,35,17.20
2011,07,05,10,36,17.30
2011,07,05,10,37,17.50
2011,07,05,10,38,17.50
2011,07,05,10,39,17.50
2011,07,05,10,40,17.50
2011,07,05,10,41,17.50
2011,07,05,10,42,17.70
2011,07,05,10,43,17.70
2011,07,05,10,44,17.80
2011,07,05,10,45,17.80
2011,07,05,10,46,17.90
2011,07,05,10,47,18.00
2011,07,05,10,48,18.20
2011,07,05,10,49,18.40
2011,07,05,10,50,18.40
2011,07,05,10,51,18.40
2011,07,05,10,52,18.40
2011,07,05,10,53,18.50
2011,07,05,10,54,18.50
2011,07,05,10,55,18.50
2011,07,05,10,56,18.60
2011,07,05,10,57,18.60
2011,07,05,10,58,18.60
2011,07,05,10,59,18.60
2011,07,05,11,00,18.60
2011,07,05,11,01,18.70
2011,07,05,11,02,18.80
2011,07,05,11,03,18.80
2011,07,05,11,04,18.90
2011,07,05,11,05,18.90
2011,07,05,11,06,19.00
2011,07,05,11,07,18.90
2011,07,05,11,08,18.80
2011,07,05,11,09,18.80
2011,07,05,11,10,18.80
2011,07,05,11,11,18.70
2011,07,05,11,12,18.80
2011,07,05,11,13,18.90
2011,07,05,11,14,18.90
2011,07,05,11,15,18.90
2011,07,05,11,16,18.90
2011,07,05,11,17,18.80
2011,07,05,11,18,18.70
2011,07,05,11,19,18.70
2011,07,05,11,20,18.70
2011,07,05,11,21,18.60
2011,07,05,11,22,18.60
2011,07,05,11,23,18.60
2011,07,05,11,24,18.70
2011,07,05,11,25,18.70
2011,07,05,11,26,18.70
2011,07,05,11,27,18.60
2011,07,05,11,28,18.60
2011,07,05,11,29,18.70
2011,07,05,11,30,18.70
2011,07,05,11,31,18.70
2011,07,05,11,32,18.80
2011,07,05,11,33,18.80
2011,07,05,11,34,18.80
2011,07,05,11,35,18.90
2011,07,05,11,36,18.80
2011,07,05,11,37,18.80
2011,07,05,11,38,18.80
2011,07,05,11,39,18.90
2011,07,05,11,40,18.80
2011,07,05,11,41,18.70
2011,07,05,11,42,18.60
2011,07,05,11,43,18.60
2011,07,05,11,44,18.60
2011,07,05,11,45,18.70
2011,07,05,11,46,18.80
2011,07,05,11,47,18.90
2011,07,05,11,48,19.00
2011,07,05,11,49,18.90
2011,07,05,11,50,18.90
2011,07,05,11,51,18.80
2011,07,05,11,52,18.80
2011,07,05,11,53,18.80
2011,07,05,11,54,18.90
2011,07,05,11,55,18.90
2011,07,05,11,56,18.80
2011,07,05,11,57,18.80
2011,07,05,11,58,18.90
2011,07,05,11,59,18.90
2011,07,05,12,00,18.80
2011,07,05,12,01,18.90
2011,07,05,12,02,19.10
2011,07,05,12,03,19.10
2011,07,05,12,04,19.00
2011,07,05,12,05,18.90
2011,07,05,12,06,18.90
2011,07,05,12,07,19.00
2011,07,05,12,08,19.10
2011,07,05,12,09,19.30
2011,07,05,12,10,19.40
2011,07,05,12,11,19.30
2011,07,05,12,12,19.30
2011,07,05,12,13,19.20
2011,07,05,12,14,19.10
2011,07,05,12,15,19.10
2011,07,05,12,16,19.20
2011,07,05,12,17,19.30
2011,07,05,12,18,19.40
2011,07,05,12,19,19.50
2011,07,05,12,20,19.60
2011,07,05,12,21,19.70
2011,07,05,12,22,19.90
2011,07,05,12,23,20.00
2011,07,05,12,24,20.10
2011,07,05,12,25,20.10
2011,07,05,12,26,20.10
2011,07,05,12,27,20.10
2011,07,05,12,28,20.10
2011,07,05,12,29,20.10
2011,07,05,12,30,20.20
2011,07,05,12,31,20.20
2011,07,05,12,32,20.20
2011,07,05,12,33,20.30
2011,07,05,12,34,20.30
2011,07,05,12,35,20.40
2011,07,05,12,36,20.50
2011,07,05,12,37,20.60
2011,07,05,12,38,20.60
2011,07,05,12,39,20.50
2011,07,05,12,40,20.30
2011,07,05,12,41,20.20
2011,07,05,12,42,20.20
2011,07,05,12,43,20.20
2011,07,05,12,44,20.20
2011,07,05,12,45,20.20
2011,07,05,12,46,20.20
2011,07,05,12,47,20.10
2011,07,05,12,48,19.90
2011,07,05,12,49,19.90
2011,07,05,12,50,19.90
2011,07,05,12,51,19.90
2011,07,05,12,52,19.90
2011,07,05,12,53,19.90
2011,07,05,12,54,19.90
2011,07,05,12,55,20.00
2011,07,05,12,56,20.20
2011,07,05,12,57,20.30
2011,07,05,12,58,20.40
2011,07,05,12,59,20.30
2011,07,05,13,00,20.30
2011,07,05,13,01,20.40
2011,07,05,13,02,20.40
2011,07,05,13,03,20.50
2011,07,05,13,04,20.60
2011,07,05,13,05,20.50
2011,07,05,13,06,20.50
2011,07,05,13,07,20.50
2011,07,05,13,08,20.40
2011,07,05,13,09,20.30
2011,07,05,13,10,20.20
2011,07,05,13,11,20.30
2011,07,05,13,12,20.30
2011,07,05,13,13,20.30
2011,07,05,13,14,20.40
2011,07,05,13,15,20.40
2011,07,05,13,16,20.40
2011,07,05,13,17,20.30
2011,07,05,13,18,20.20
2011,07,05,13,19,20.20
2011,07,05,13,20,20.10
2011,07,05,13,21,20.20
2011,07,05,13,22,20.20
2011,07,05,13,23,20.20
2011,07,05,13,24,20.20
2011,07,05,13,25,20.20
2011,07,05,13,26,20.00
2011,07,05,13,27,19.90
2011,07,05,13,28,19.90
2011,07,05,13,29,19.90
2011,07,05,13,30,19.90
2011,07,05,13,31,20.00
2011,07,05,13,32,20.10
2011,07,05,13,33,20.10
2011,07,05,13,34,20.10
2011,07,05,13,35,20.10
2011,07,05,13,36,20.10
2011,07,05,13,37,20.20
2011,07,05,13,38,20.20
2011,07,05,13,39,20.30
2011,07,05,13,40,20.20
2011,07,05,13,41,20.20
2011,07,05,13,42,20.20
2011,07,05,13,43,20.20
2011,07,05,13,44,20.20
2011,07,05,13,45,20.20
2011,07,05,13,46,20.40
2011,07,05,13,47,20.50
2011,07,05,13,48,20.50
2011,07,05,13,49,20.50
2011,07,05,13,50,20.50
2011,07,05,13,51,20.60
2011,07,05,13,52,20.80
2011,07,05,13,53,20.80
2011,07,05,13,54,20.80
2011,07,05,13,55,20.80
2011,07,05,13,56,20.80
2011,07,05,13,57,20.70
2011,07,05,13,58,20.60
2011,07,05,13,59,20.50
2011,07,05,14,00,20.40
2011,07,05,14,01,20.50
2011,07,05,14,02,20.50
2011,07,05,14,03,20.50
2011,07,05,14,04,20.50
2011,07,05,14,05,20.60
2011,07,05,14,06,20.70
2011,07,05,14,07,20.80
2011,07,05,14,08,20.90
2011,07,05,14,09,20.90
2011,07,05,14,10,21.00
2011,07,05,14,11,21.20
2011,07,05,14,12,21.20
2011,07,05,14,13,21.20
2011,07,05,14,14,21.10
2011,07,05,14,15,21.00
2011,07,05,14,16,20.90
2011,07,05,14,17,21.00
2011,07,05,14,18,21.10
2011,07,05,14,19,21.10
2011,07,05,14,20,21.10
2011,07,05,14,21,21.10
2011,07,05,14,22,21.00
2011,07,05,14,23,20.90
2011,07,05,14,24,20.80
2011,07,05,14,25,20.90
2011,07,05,14,26,20.90
2011,07,05,14,27,20.90
2011,07,05,14,28,20.90
2011,07,05,14,29,21.10
2011,07,05,14,30,21.30
2011,07,05,14,31,21.40
2011,07,05,14,32,21.50
2011,07,05,14,33,21.60
2011,07,05,14,34,21.70
2011,07,05,14,35,21.70
2011,07,05,14,36,21.60
2011,07,05,14,37,21.60
2011,07,05,14,38,21.40
2011,07,05,14,39,21.40
2011,07,05,14,40,21.50
2011,07,05,14,41,21.60
2011,07,05,14,42,21.60
2011,07,05,14,43,21.60
2011,07,05,14,44,21.60
2011,07,05,14,45,21.60
2011,07,05,14,46,21.60
2011,07,05,14,47,21.70
2011,07,05,14,48,21.60
2011,07,05,14,49,21.60
2011,07,05,14,50,21.50
2011,07,05,14,51,21.50
2011,07,05,14,52,21.50
2011,07,05,14,53,21.50
2011,07,05,14,54,21.60
2011,07,05,14,55,21.60
2011,07,05,14,56,21.60
2011,07,05,14,57,21.60
2011,07,05,14,58,21.60
2011,07,05,14,59,21.70
2011,07,05,15,00,21.70
2011,07,05,15,01,21.80
2011,07,05,15,02,21.90
2011,07,05,15,03,22.00
2011,07,05,15,04,22.00
2011,07,05,15,05,22.00
2011,07,05,15,06,22.10
2011,07,05,15,07,22.20
2011,07,05,15,08,22.20
2011,07,05,15,09,22.30
2011,07,05,15,10,22.30
2011,07,05,15,11,22.20
2011,07,05,15,12,22.20
2011,07,05,15,13,22.20
2011,07,05,15,14,22.10
2011,07,05,15,15,22.00
2011,07,05,15,16,22.00
2011,07,05,15,17,22.00
2011,07,05,15,18,22.00
2011,07,05,15,19,22.00
2011,07,05,15,20,21.90
2011,07,05,15,21,21.90
2011,07,05,15,22,22.00
2011,07,05,15,23,22.10
2011,07,05,15,24,22.20
2011,07,05,15,25,22.20
2011,07,05,15,26,22.30
2011,07,05,15,27,22.30
2011,07,05,15,28,22.50
2011,07,05,15,29,22.60
2011,07,05,15,30,22.70
2011,07,05,15,31,22.70
2011,07,05,15,32,22.80
2011,07,05,15,33,22.90
2011,07,05,15,34,22.90
2011,07,05,15,35,22.90
2011,07,05,15,36,22.80
2011,07,05,15,37,22.80
2011,07,05,15,38,22.70
2011,07,05,15,39,22.80
2011,07,05,15,40,22.80
2011,07,05,15,41,22.80
2011,07,05,15,42,22.80
2011,07,05,15,43,22.90
2011,07,05,15,44,22.90
2011,07,05,15,45,22.90
2011,07,05,15,46,22.90
2011,07,05,15,47,22.90
2011,07,05,15,48,22.90
2011,07,05,15,49,22.90
2011,07,05,15,50,23.00
2011,07,05,15,51,23.10
2011,07,05,15,52,23.10
2011,07,05,15,53,23.10
2011,07,05,15,54,22.90
2011,07,05,15,55,22.90
2011,07,05,15,56,22.90
2011,07,05,15,57,22.90
2011,07,05,15,58,22.90
2011,07,05,15,59,23.00
2011,07,05,16,00,23.10
2011,07,05,16,01,23.20
2011,07,05,16,02,23.40
2011,07,05,16,03,23.60
2011,07,05,16,04,23.70
2011,07,05,16,05,23.70
2011,07,05,16,06,23.80
2011,07,05,16,07,23.70
2011,07,05,16,08,23.70
2011,07,05,16,09,23.50
2011,07,05,16,10,23.30
2011,07,05,16,11,23.10
2011,07,05,16,12,22.90
2011,07,05,16,13,22.90
2011,07,05,16,14,22.90
2011,07,05,16,15,22.90
2011,07,05,16,16,22.80
2011,07,05,16,17,22.80
2011,07,05,16,18,22.80
2011,07,05,16,19,22.80
2011,07,05,16,20,22.80
2011,07,05,16,21,22.80
2011,07,05,16,22,22.80
2011,07,05,16,23,22.80
2011,07,05,16,24,22.90
2011,07,05,16,25,22.80
2011,07,05,16,26,22.70
2011,07,05,16,27,22.70
2011,07,05,16,28,22.60
2011,07,05,16,29,22.60
2011,07,05,16,30,22.60
2011,07,05,16,31,22.60
2011,07,05,16,32,22.80
2011,07,05,16,33,22.90
2011,07,05,16,34,23.00
2011,07,05,16,35,22.90
2011,07,05,16,36,22.80
2011,07,05,16,37,22.70
2011,07,05,16,38,22.70
2011,07,05,16,39,22.60
2011,07,05,16,40,22.70
2011,07,05,16,41,22.70
2011,07,05,16,42,22.70
2011,07,05,16,43,22.80
2011,07,05,16,44,22.80
2011,07,05,16,45,22.80
2011,07,05,16,46,22.80
2011,07,05,16,47,22.80
2011,07,05,16,48,22.90
2011,07,05,16,49,23.00
2011,07,05,16,50,23.10
2011,07,05,16,51,23.10
2011,07,05,16,52,23.10
2011,07,05,16,53,23.10
2011,07,05,16,54,23.00
2011,07,05,16,55,22.90
2011,07,05,16,56,22.90
2011,07,05,16,57,22.90
2011,07,05,16,58,22.90
2011,07,05,16,59,22.90
2011,07,05,17,00,22.90
2011,07,05,17,01,22.90
2011,07,05,17,02,22.90
2011,07,05,17,03,22.90
2011,07,05,17,04,22.90
2011,07,05,17,05,22.90
2011,07,05,17,06,22.90
2011,07,05,17,07,22.80
2011,07,05,17,08,22.80
2011,07,05,17,09,22.70
2011,07,05,17,10,22.70
2011,07,05,17,11,22.70
2011,07,05,17,12,22.70
2011,07,05,17,13,22.70
2011,07,05,17,14,22.60
2011,07,05,17,15,22.50
2011,07,05,17,16,22.50
2011,07,05,17,17,22.50
2011,07,05,17,18,22.40
2011,07,05,17,19,22.30
2011,07,05,17,20,22.30
2011,07,05,17,21,22.30
2011,07,05,17,22,22.30
2011,07,05,17,23,22.20
2011,07,05,17,24,22.10